This is the latest recevied weather packets stored in our database for station/object W5ITZ. If no packets are shown the sender has not sent any weather packets the latest 10 day(s).
| Time | Temp. | Humidity | Pressure | Rain* | Wind** | Luminosity | Snow |
|---|---|---|---|---|---|---|---|
| 1787591587 | 33.33° C | 60% | 1016.5 hPa | 0 mm | - | 939 W/m² | - |
| 1787591282 | 33.33° C | 58% | 1016.8 hPa | 0 mm | - | 508 W/m² | - |
| 1787590977 | 32.78° C | 60% | 1016.7 hPa | 0 mm | - | 774 W/m² | - |
| 1787590673 | 32.78° C | 61% | 1016.8 hPa | 0 mm | - | 337 W/m² | - |
| 1787590369 | 32.78° C | 61% | 1016.7 hPa | 0 mm | - | 913 W/m² | - |
| 1787590063 | 32.78° C | 62% | 1017 hPa | 0 mm | - | 220 W/m² | - |
| 1787589759 | 32.22° C | 62% | 1016.9 hPa | 0 mm | - | 883 W/m² | - |
| 1787589454 | 32.22° C | 63% | 1016.8 hPa | 0 mm | - | 230 W/m² | - |
| 1787589150 | 32.22° C | 64% | 1017.1 hPa | 0 mm | - | 232 W/m² | - |
| 1787588844 | 32.22° C | 64% | 1016.9 hPa | 0 mm | - | 244 W/m² | - |
| 1787588541 | 31.67° C | 65% | 1016.9 hPa | 0 mm | - | 844 W/m² | - |
| 1787588236 | 31.67° C | 67% | 1017.1 hPa | 0 mm | - | 255 W/m² | - |
| 1787587931 | 31.67° C | 66% | 1016.8 hPa | 0 mm | - | 643 W/m² | - |
| 1787587627 | 31.67° C | 65% | 1016.8 hPa | 0 mm | - | 787 W/m² | - |
| 1787587321 | 31.67° C | 65% | 1016.9 hPa | 0 mm | - | 762 W/m² | - |
| 1787587021 | 31.11° C | 67% | 1016.6 hPa | 0 mm | - | 734 W/m² | - |
| 1787586715 | 31.11° C | 69% | 1016.8 hPa | 0 mm | - | 718 W/m² | - |
| 1787586411 | 31.11° C | 70% | 1016.5 hPa | 0 mm | - | 702 W/m² | - |
| 1787586108 | 31.11° C | 70% | 1016.7 hPa | 0 mm | - | 681 W/m² | - |
| 1787585803 | 30.56° C | 71% | 1017 hPa | 0 mm | - | 668 W/m² | - |
| 1787585497 | 31.11° C | 72% | 1016.8 hPa | 0 mm | - | 694 W/m² | - |
| 1787585192 | 31.11° C | 72% | 1016.6 hPa | 0 mm | - | 626 W/m² | - |
| 1787584887 | 30.56° C | 72% | 1016.5 hPa | 0 mm | - | 628 W/m² | - |
| 1787584586 | 30.56° C | 74% | 1016.5 hPa | 0 mm | - | 611 W/m² | - |
| 1787584280 | 30.56° C | 74% | 1016.6 hPa | 0 mm | - | 590 W/m² | - |
* Rain latest hour (hover to see other rain measurements)
** Current wind speed in m/s (hover to see current wind gust speed)